2021-12-23 00:03:17 r, 17.02m,0000000013Hz,0000035582c,0000000.077s, 002.2C,00002191
2021-12-23 00:13:16 r, 17.11m,0000000012Hz,0000038474c,0000000.083s, 002.2C,00002191
2021-12-23 00:23:19 r, 17.18m,0000000011Hz,0000040735c,0000000.088s, 002.5C,00002191
2021-12-23 00:33:17 r, 17.10m,0000000012Hz,0000038061c,0000000.083s, 002.5C,00002191
2021-12-23 00:43:16 r, 17.06m,0000000012Hz,0000036727c,0000000.080s, 002.5C,00002191
2021-12-23 00:53:16 r, 17.09m,0000000012Hz,0000037805c,0000000.082s, 002.9C,00002191
2021-12-23 01:03:18 r, 17.03m,0000000013Hz,0000035745c,0000000.078s, 002.9C,00002191
2021-12-23 01:13:16 r, 17.08m,0000000012Hz,0000037206c,0000000.081s, 002.9C,00002191
2021-12-23 01:23:16 r, 16.99m,0000000013Hz,0000034473c,0000000.075s, 002.9C,00002191
2021-12-23 01:33:19 r, 17.03m,0000000013Hz,0000035588c,0000000.077s, 002.9C,00002191
2021-12-23 01:43:16 r, 17.03m,0000000013Hz,0000035691c,0000000.077s, 003.2C,00002191
2021-12-23 01:53:16 r, 16.90m,0000000015Hz,0000031713c,0000000.069s, 003.2C,00002191
2021-12-23 02:03:19 r, 17.01m,0000000013Hz,0000035081c,0000000.076s, 003.2C,00002191
2021-12-23 02:13:16 r, 16.94m,0000000014Hz,0000032619c,0000000.071s, 003.2C,00002191
2021-12-23 02:23:16 r, 16.81m,0000000016Hz,0000029149c,0000000.063s, 003.2C,00002191
2021-12-23 02:33:17 r, 16.74m,0000000017Hz,0000027327c,0000000.059s, 003.2C,00002191
2021-12-23 02:43:16 r, 16.64m,0000000019Hz,0000024774c,0000000.054s, 003.5C,00002191
2021-12-23 02:53:16 r, 16.89m,0000000014Hz,0000031217c,0000000.068s, 003.5C,00002191
2021-12-23 03:03:17 r, 16.81m,0000000016Hz,0000029081c,0000000.063s, 003.5C,00002191
2021-12-23 03:13:16 r, 16.80m,0000000016Hz,0000028673c,0000000.062s, 003.5C,00002191
2021-12-23 03:23:16 r, 16.79m,0000000016Hz,0000028600c,0000000.062s, 003.5C,00002191
2021-12-23 03:33:18 r, 16.79m,0000000016Hz,0000028646c,0000000.062s, 003.5C,00002191
2021-12-23 03:43:16 r, 16.77m,0000000016Hz,0000028143c,0000000.061s, 003.5C,00002191
2021-12-23 03:53:16 r, 16.75m,0000000017Hz,0000027417c,0000000.059s, 003.5C,00002191
2021-12-23 04:03:19 r, 16.63m,0000000019Hz,0000024575c,0000000.053s, 003.5C,00002191
2021-12-23 04:13:16 r, 16.64m,0000000019Hz,0000024769c,0000000.054s, 003.5C,00002191
2021-12-23 04:23:16 r, 16.67m,0000000018Hz,0000025538c,0000000.055s, 003.8C,00002191
2021-12-23 04:33:19 r, 16.71m,0000000017Hz,0000026417c,0000000.057s, 003.8C,00002191
2021-12-23 04:43:17 r, 16.76m,0000000017Hz,0000027755c,0000000.060s, 003.8C,00002191
2021-12-23 04:53:16 r, 16.72m,0000000017Hz,0000026681c,0000000.058s, 003.8C,00002191
2021-12-23 05:03:17 r, 16.68m,0000000018Hz,0000025789c,0000000.056s, 003.8C,00002191
2021-12-23 05:13:18 r, 16.68m,0000000018Hz,0000025710c,0000000.056s, 003.8C,00002191
2021-12-23 05:23:16 r, 16.64m,0000000019Hz,0000024859c,0000000.054s, 003.8C,00002191
2021-12-23 05:33:18 r, 16.71m,0000000017Hz,0000026556c,0000000.058s, 003.8C,00002191
2021-12-23 05:43:17 r, 16.66m,0000000018Hz,0000025304c,0000000.055s, 003.8C,00002191
2021-12-23 05:53:16 r, 16.64m,0000000018Hz,0000024866c,0000000.054s, 003.8C,00002191
2021-12-23 06:03:17 r, 16.60m,0000000020Hz,0000024016c,0000000.052s, 004.1C,00002191
2021-12-23 06:13:19 r, 16.64m,0000000018Hz,0000024734c,0000000.054s, 004.1C,00002191
2021-12-23 06:23:16 r, 16.69m,0000000018Hz,0000025906c,0000000.056s, 004.1C,00002191
2021-12-23 06:33:19 r, 16.71m,0000000018Hz,0000026379c,0000000.057s, 003.8C,00002191
2021-12-23 06:43:17 r, 16.74m,0000000017Hz,0000027212c,0000000.059s, 003.8C,00002191
2021-12-23 06:53:16 r, 16.79m,0000000016Hz,0000028493c,0000000.062s, 003.8C,00002191
2021-12-23 07:03:19 r, 16.79m,0000000016Hz,0000028601c,0000000.062s, 003.8C,00002191
2021-12-23 07:13:17 r, 16.72m,0000000017Hz,0000026822c,0000000.058s, 003.8C,00002191
2021-12-23 07:23:16 r, 16.32m,0000000025Hz,0000018432c,0000000.040s, 003.8C,00002191
2021-12-23 07:33:17 r, 15.33m,0000000062Hz,0000007450c,0000000.016s, 003.8C,00002191
2021-12-23 07:43:18 r, 13.65m,0000000295Hz,0000000000c,0000000.000s, 003.8C,00002191
2021-12-23 07:53:16 r, 11.84m,0000001559Hz,0000000000c,0000000.000s, 003.8C,00002191
2021-12-23 08:03:18 r, 10.06m,0000007999Hz,0000000000c,0000000.000s, 003.8C,00002191
2021-12-23 08:13:17 r, 08.61m,0000030436Hz,0000000000c,0000000.000s, 003.8C,00002191
2021-12-23 08:23:16 r, 07.63m,0000074775Hz,0000000000c,0000000.000s, 004.1C,00002191
2021-12-23 08:33:17 r, 06.87m,0000150979Hz,0000000000c,0000000.000s, 004.1C,00002191
2021-12-23 08:43:19 r, 06.27m,0000263120Hz,0000000000c,0000000.000s, 004.1C,00002191
2021-12-23 08:53:16 r, 00.00m,0000407789Hz,0000000000c,0000000.000s, 004.1C,00002191
2021-12-23 09:03:19 r, 00.00m,0000599019Hz,0000000000c,0000000.000s, 004.5C,00002191
2021-12-23 09:13:17 r, 00.00m,0000598971Hz,0000000000c,0000000.000s, 004.5C,00002191
2021-12-23 09:23:16 r, 00.00m,0000599002Hz,0000000000c,0000000.000s, 004.8C,00002191
2021-12-23 09:33:17 r, 00.00m,0000598986Hz,0000000000c,0000000.000s, 004.8C,00002191
2021-12-23 09:43:18 r, 00.00m,0000598928Hz,0000000000c,0000000.000s, 004.8C,00002191
2021-12-23 09:53:16 r, 00.00m,0000598928Hz,0000000000c,0000000.000s, 004.8C,00002191
2021-12-23 10:03:18 r, 00.00m,0000598797Hz,0000000000c,0000000.000s, 005.1C,00002191
2021-12-23 10:13:17 r, 00.00m,0000598896Hz,0000000000c,0000000.000s, 005.4C,00002191
2021-12-23 10:23:16 r, 00.00m,0000598715Hz,0000000000c,0000000.000s, 005.8C,00002191
2021-12-23 10:33:17 r, 00.00m,0000598792Hz,0000000000c,0000000.000s, 006.1C,00002191
2021-12-23 10:43:19 r, 00.00m,0000598733Hz,0000000000c,0000000.000s, 006.4C,00002191
2021-12-23 10:53:16 r, 00.00m,0000598652Hz,0000000000c,0000000.000s, 006.7C,00002191
2021-12-23 11:03:16 r, 00.00m,0000598686Hz,0000000000c,0000000.000s, 007.0C,00002191
2021-12-23 11:13:17 r, 00.00m,0000598731Hz,0000000000c,0000000.000s, 007.4C,00002191
2021-12-23 11:23:16 r, 00.00m,0000598676Hz,0000000000c,0000000.000s, 008.0C,00002191
2021-12-23 11:33:19 r, 00.00m,0000598717Hz,0000000000c,0000000.000s, 008.3C,00002191
2021-12-23 11:43:17 r, 00.00m,0000598506Hz,0000000000c,0000000.000s, 008.7C,00002191
2021-12-23 11:53:16 r, 00.00m,0000598453Hz,0000000000c,0000000.000s, 009.3C,00002191
2021-12-23 12:03:17 r, 00.00m,0000598366Hz,0000000000c,0000000.000s, 009.6C,00002191
2021-12-23 12:13:18 r, 00.00m,0000598343Hz,0000000000c,0000000.000s, 009.9C,00002191
2021-12-23 12:23:16 r, 00.00m,0000598345Hz,0000000000c,0000000.000s, 010.3C,00002191
2021-12-23 12:33:16 r, 00.00m,0000598269Hz,0000000000c,0000000.000s, 011.2C,00002191
2021-12-23 12:43:19 r, 00.00m,0000598362Hz,0000000000c,0000000.000s, 010.6C,00002191
2021-12-23 12:53:16 r, 00.00m,0000598414Hz,0000000000c,0000000.000s, 009.6C,00002191
2021-12-23 13:03:16 r, 00.00m,0000598503Hz,0000000000c,0000000.000s, 008.7C,00002191
2021-12-23 13:13:19 r, 00.00m,0000598492Hz,0000000000c,0000000.000s, 008.3C,00002191
2021-12-23 13:23:16 r, 00.00m,0000598518Hz,0000000000c,0000000.000s, 008.3C,00002191
2021-12-23 13:33:16 r, 00.00m,0000598549Hz,0000000000c,0000000.000s, 008.0C,00002191
2021-12-23 13:43:17 r, 00.00m,0000598497Hz,0000000000c,0000000.000s, 008.3C,00002191
2021-12-23 13:53:16 r, 00.00m,0000598522Hz,0000000000c,0000000.000s, 008.7C,00002191
2021-12-23 14:03:19 r, 00.00m,0000598477Hz,0000000000c,0000000.000s, 008.7C,00002191
2021-12-23 14:13:17 r, 00.00m,0000598524Hz,0000000000c,0000000.000s, 009.0C,00002191
2021-12-23 14:23:16 r, 00.00m,0000598461Hz,0000000000c,0000000.000s, 009.0C,00002191
2021-12-23 14:33:17 r, 00.00m,0000598330Hz,0000000000c,0000000.000s, 008.7C,00002191
2021-12-23 14:43:18 r, 00.00m,0000598536Hz,0000000000c,0000000.000s, 008.7C,00002191
2021-12-23 14:53:16 r, 00.00m,0000598397Hz,0000000000c,0000000.000s, 008.7C,00002191
2021-12-23 15:03:16 r, 00.00m,0000598490Hz,0000000000c,0000000.000s, 009.0C,00002191
2021-12-23 15:13:19 r, 00.00m,0000598493Hz,0000000000c,0000000.000s, 009.0C,00002191
2021-12-23 15:23:16 r, 00.00m,0000598500Hz,0000000000c,0000000.000s, 008.7C,00002191
2021-12-23 15:33:16 r, 00.00m,0000598648Hz,0000000000c,0000000.000s, 008.3C,00002191
2021-12-23 15:43:19 r, 00.00m,0000598587Hz,0000000000c,0000000.000s, 008.0C,00002191
2021-12-23 15:53:16 r, 00.00m,0000436123Hz,0000000000c,0000000.000s, 007.7C,00002191
2021-12-23 16:03:19 r, 06.12m,0000301764Hz,0000000000c,0000000.000s, 007.4C,00002191
2021-12-23 16:13:17 r, 06.33m,0000248363Hz,0000000000c,0000000.000s, 007.4C,00002191
2021-12-23 16:23:16 r, 06.96m,0000139660Hz,0000000000c,0000000.000s, 007.0C,00002191
2021-12-23 16:33:19 r, 07.74m,0000067668Hz,0000000000c,0000000.000s, 007.0C,00002191
2021-12-23 16:43:17 r, 08.79m,0000025755Hz,0000000000c,0000000.000s, 007.0C,00002191
2021-12-23 16:53:16 r, 10.38m,0000005959Hz,0000000000c,0000000.000s, 006.7C,00002191
2021-12-23 17:03:17 r, 12.10m,0000001219Hz,0000000000c,0000000.000s, 006.7C,00002191
2021-12-23 17:13:18 r, 14.00m,0000000212Hz,0000000000c,0000000.000s, 006.7C,00002191
2021-12-23 17:23:16 r, 15.72m,0000000044Hz,0000010703c,0000000.023s, 007.0C,00002191
2021-12-23 17:33:16 r, 16.70m,0000000017Hz,0000026348c,0000000.057s, 007.0C,00002191
2021-12-23 17:43:19 r, 16.97m,0000000014Hz,0000033692c,0000000.073s, 007.0C,00002191
2021-12-23 17:53:16 r, 17.18m,0000000012Hz,0000040806c,0000000.089s, 007.4C,00002191
2021-12-23 18:03:16 r, 17.22m,0000000011Hz,0000042659c,0000000.093s, 007.7C,00002191
2021-12-23 18:13:17 r, 17.17m,0000000011Hz,0000040534c,0000000.088s, 008.0C,00002191
2021-12-23 18:23:16 r, 17.02m,0000000013Hz,0000035329c,0000000.077s, 008.0C,00002191
2021-12-23 18:33:16 r, 17.02m,0000000013Hz,0000035551c,0000000.077s, 008.0C,00002191
2021-12-23 18:43:17 r, 16.98m,0000000014Hz,0000033816c,0000000.073s, 008.0C,00002191
2021-12-23 18:53:16 r, 16.87m,0000000015Hz,0000030820c,0000000.067s, 008.0C,00002191
2021-12-23 19:03:16 r, 16.59m,0000000019Hz,0000023697c,0000000.051s, 008.0C,00002191
2021-12-23 19:13:18 r, 16.70m,0000000018Hz,0000026158c,0000000.057s, 008.0C,00002191
2021-12-23 19:23:16 r, 16.54m,0000000021Hz,0000022681c,0000000.049s, 008.0C,00002191
2021-12-23 19:33:16 r, 16.36m,0000000024Hz,0000019252c,0000000.042s, 008.0C,00002191
2021-12-23 19:43:19 r, 16.43m,0000000022Hz,0000020601c,0000000.045s, 008.0C,00002191
2021-12-23 19:53:16 r, 16.48m,0000000021Hz,0000021399c,0000000.046s, 008.3C,00002191
2021-12-23 20:03:16 r, 16.67m,0000000018Hz,0000025487c,0000000.055s, 008.3C,00002191
2021-12-23 20:13:19 r, 16.69m,0000000018Hz,0000026076c,0000000.057s, 008.3C,00002191
2021-12-23 20:23:16 r, 16.54m,0000000020Hz,0000022550c,0000000.049s, 008.3C,00002191
2021-12-23 20:33:16 r, 16.47m,0000000022Hz,0000021327c,0000000.046s, 008.3C,00002191
2021-12-23 20:43:17 r, 16.38m,0000000024Hz,0000019541c,0000000.042s, 008.3C,00002191
2021-12-23 20:53:16 r, 16.29m,0000000026Hz,0000017924c,0000000.039s, 008.3C,00002191
2021-12-23 21:03:16 r, 16.38m,0000000023Hz,0000019617c,0000000.043s, 008.3C,00002191
2021-12-23 21:13:17 r, 16.56m,0000000020Hz,0000022920c,0000000.050s, 008.7C,00002191
2021-12-23 21:23:19 r, 16.59m,0000000020Hz,0000023720c,0000000.051s, 008.7C,00002191
2021-12-23 21:33:16 r, 16.57m,0000000020Hz,0000023321c,0000000.051s, 008.7C,00002191
2021-12-23 21:43:18 r, 16.58m,0000000020Hz,0000023317c,0000000.051s, 009.0C,00002191
2021-12-23 21:53:17 r, 16.49m,0000000021Hz,0000021576c,0000000.047s, 009.0C,00002191
2021-12-23 22:03:16 r, 16.50m,0000000021Hz,0000021986c,0000000.048s, 009.3C,00002191
2021-12-23 22:13:19 r, 16.47m,0000000022Hz,0000021125c,0000000.046s, 009.3C,00002191
2021-12-23 22:23:17 r, 16.56m,0000000020Hz,0000023012c,0000000.050s, 009.3C,00002191
2021-12-23 22:33:16 r, 16.69m,0000000018Hz,0000025865c,0000000.056s, 009.3C,00002191
2021-12-23 22:43:19 r, 16.52m,0000000021Hz,0000022388c,0000000.049s, 009.3C,00002191
2021-12-23 22:53:17 r, 16.64m,0000000018Hz,0000024619c,0000000.053s, 009.3C,00002191
2021-12-23 23:03:16 r, 16.68m,0000000019Hz,0000025542c,0000000.055s, 009.3C,00002191
2021-12-23 23:13:17 r, 16.69m,0000000018Hz,0000025879c,0000000.056s, 009.3C,00002191
2021-12-23 23:23:18 r, 16.54m,0000000020Hz,0000022550c,0000000.049s, 009.6C,00002191
2021-12-23 23:33:16 r, 16.31m,0000000025Hz,0000018390c,0000000.040s, 009.6C,00002191
2021-12-23 23:43:18 r, 16.38m,0000000023Hz,0000019679c,0000000.043s, 009.6C,00002191
2021-12-23 23:53:17 r, 16.38m,0000000024Hz,0000019544c,0000000.042s, 009.9C,00002191
